Showing default

PISAT, 41784

Orbit data source: Space-Track

PISAT, 41784 is a payload satellite owned by PES Univ. (IN) in SSO that was launched on Mon, 26 Sep 2016 UTC via a PSLV launch vehicle from the Sirharikota (SRI). Payload-class satellites include a variety of spacecraft equipped with specific instruments for various scientific and technological missions. These include communications satellites like Starlink; space stations such as the ISS; scientific satellites like the Hubble; Earth observation satellites from companies like Planet Labs, Umbra, and HawkEye 360; GPS; miniature CubeSats for education and research; and military/defense satellites.

Loading next visibility...
Identifier
41784, 2016-059B
Orbit
SSO
Country
Flag of ININ / IND
Related business
Manufacturer
PES Univ.
Mission
Operational Amateur Imaging
Bus & Motor
PISAT, Unknown motor
Mass
5.25 kg wet, 5.25 kg dry
Launch date (UTC)
2016-09-26 (9 years ago)
Launch vehicle
PSLV
Launch site
Sirharikota (SRI)
Object type
Payload
Rocket body
Debris
Shape & HBR
Box, 0.1 m
Radar Cross Section
0.079 m², Medium (>0.1 m² and < 1m²)

Expand to show TLE details & history
Last TLE update: 11 hours ago

TLE from 11 hours ago
0 PISAT
1 41784U 16059B   25258.30000427  .00001318  00000-0  23590-3 0  9998
2 41784  97.8182 265.7831 0029606   6.6522 353.5071 14.68152867479391
Epoch: 2025-09-15T07:12Z
TLE epoch observation values (Epoch: 2025-09-15T07:12:00.368Z)
Latitude
-0.00003°
Longitude
163.27493°
Altitude
649.251 km
Speed
7.544 km/s
True Right ascension
17h 43m 07s
True Declination
0° 00' 00"
Sunlit
Object was in daylight at epoch
Visualization orbit readout
Latitude
Unknown
Longitude
Unknown
Altitude
Unknown
Speed
Unknown
Apparent Right ascension
Unknown
Apparent Declination
Unknown
Sunlit
N/A
Visualization observer readout
Local Sidereal Time
11:11:38
Azimuth
Unknown
Elevation
Unknown
Doppler factor
Unknown
Orbital elements
Apogee altitude
684.873 km
Perigee altitude
643.175 km
Semi-major axis
7,042.161 km
Eccentricity
0.00296
Inclination
97.8182°
RAAN
265.7831°
Arg. of periapsis
6.6522°
True anomaly
353.46859°
Mean anomaly
353.5071°
Eccentric anomaly
353.48786°
Mean motion
3.67269 °/min
Orbital period
98.02 mins
BSTAR
0.0002359
Loading maneuver chart data...
Computing Atmospheric mass density...
Loading historical data...
Loading historical data...
Loading historical data...
Loading historical data...
Loading historical data...
Loading historical data...
Loading historical data...

Documentation

Showing up to 5 results
|